Volver al catálogo

GSLV R/B

ActivoHEO
NORAD 56760·ROCKET BODY·🇮🇳 India

Lanzado May 29, 2023 desde Satish Dhawan Space Centre

Loading…

Próximos Pases (próximas 24 horas)

TLE

ActualizadoSource: Space-Track

Época: Sep 13, 2026, 08:08 UTC

1 56760U 23076B   26256.33955214  .00015611  00000-0  82237-3 0  9994
2 56760  19.3554 349.3002 6439173 267.7142  22.8248  3.45221338 34471

Sigue GSLV R/B en tiempo real con AllMySat

Download on the App Store